Regional Weather Roundup
Issued by NWS Portland, ME

Current Version | Previous Version | Text Only | Print | Product List | Glossary Off
Versions: 1 2 3 4 5 6 7 8 9 10 11 12 13 14 15 16 17 18 19 20 21 22 23 24 25 26 27 28 29 30 31 32 33 34 35 36 37 38 39 40 41 42 43 44 45 46 47 48 49 50
000 ASUS41 KGYX 202005 RWRGYX WEATHER ROUNDUP FOR MAINE AND NEW HAMPSHIRE NATIONAL WEATHER SERVICE GRAY ME 400 PM EDT SAT OCT 20 2018 MEZ002-005-006-010-012-015-018-020-021-024-026-027-029-202100- MAINE CITY SKY/WX TMP DP RH WIND PRES REMARKS PORTLAND FAIR 64 39 39 W13G22 29.51S SANFORD FAIR 62 39 42 SW15G22 29.52S BAR HARBOR FAIR 60 48 64 SW16 29.48F WISCASSET FAIR 63 39 41 VRB6 29.50F ROCKLAND FAIR 60 48 64 SW14 29.48F FRYEBURG FAIR 62 31 31 W9G17 29.49F LEWISTONAUBURN FAIR 61 42 49 SW9 29.49S AUGUSTA FAIR 61 40 45 SW8 29.48F WATERVILLE FAIR 62 40 44 SW10G17 29.44F BANGOR FAIR 63 40 42 SW13 29.45S GREENVILLE N/A 57 29 34 SW9G18 29.40R MILLINOCKET PTSUNNY 60 35 39 VRB6G17 29.42F HOULTON FAIR 59 41 51 SW12G22 29.39S PRESQUE ISLE PTSUNNY 60 32 34 W17G35 29.36S FRENCHVILLE FAIR 57 31 37 SW21G39 29.32R CARIBOU PTSUNNY 59 33 37 SW21G33 29.35R $$ NHZ002-005-008-009-011-012-014-202100- NEW HAMPSHIRE CITY SKY/WX TMP DP RH WIND PRES REMARKS PORTSMOUTH MOSUNNY 63 41 43 SW15G22 29.51F ROCHESTER FAIR 62 42 47 VRB3 29.52F NASHUA FAIR 60 42 51 W7G22 29.56F MANCHESTER FAIR 62 39 42 VRB7G20 29.53F CONCORD PTSUNNY 62 38 40 W10G17 29.53S LACONIA FAIR 61 33 35 W16 29.51S PLYMOUTH FAIR 61 31 31 W8G16 29.51S BERLIN PTSUNNY 62 30 29 VRB7G21 29.47S WHITEFIELD FAIR 59 30 33 W10G18 29.48S JAFFREY FAIR 57 42 57 W9 29.57F KEENE FAIR 59 38 45 SW7 29.55F LEBANON FAIR 62 33 33 W14G21 29.51F MT WASHINGTON NOT AVBL $$ VTZ005-007-008-202100- VERMONT CITY SKY/WX TMP DP RH WIND PRES REMARKS ST JOHNSBURY N/A 57 27 31 MISG 29.48R MONTPELIER FAIR 56 29 35 SW13G25 29.55R BURLINGTON FAIR 61 30 31 W14G21 29.52S $$ MAZ007-012-024-CTZ003-RIZ002-NYZ038-NYZ072-202100- SOUTHERN NEW ENGLAND AND NY CITY SKY/WX TMP DP RH WIND PRES REMARKS BOSTON PTSUNNY 64 45 49 SW15 29.55F WORCESTER PTSUNNY 55 44 66 W14G24 29.57F NANTUCKET FAIR 59 53 80 W13 29.61F PROVIDENCE FAIR 63 46 54 W15 29.59F HARTFORD PTSUNNY 64 44 48 W15 29.58F ALBANY PTSUNNY 58 36 43 NW12 29.59F NEW YORK CITY PTSUNNY 64 43 46 W12 29.61F $$ ANZ081-ANZ082-ANZ150-NHZ014-MEZ023>029-202100- COASTAL MARINE OBSERVATIONS STATION/POSITION TIME TEMP WIND PRES WAVE AIR SEA DIR/SP/G HT/PER (UTC) (F) (DEG/KT/KT) (MB) (FT/S) MOUNT DESERT ROC 2000 55 190/ 20/ 21 999.6F MATINICUS ROCK 1900 56 230/ 20/ 22 999.3F ISLE OF SHOALS 1900 60 250/ 17/ 18 999.8F JEFFREYS LEDGE 1906 55 N/A 3/ 5 $$ .............KEY.............. WCI - WIND CHILL TC - TEMPERATURE IN CELSIUS VSB - VISIBILITY IN MILES HX - HEAT INDEX FAIR- INDICATES FEW OR NO CLOUDS BELOW 12,000 FT, WITH NO SIGNIFICANT WEATHER AND/OR OBSTRUCTIONS TO VISIBILITY.

USA.gov is the U.S. government's official web portal to all federal, state and local government web resources and services.